Time,TemperatureF,DewpointF,PressureIn,WindDirection,WindDirectionDegrees,WindSpeedMPH,WindSpeedGustMPH,Humidity,HourlyPrecipIn,Conditions,Clouds,dailyrainin,SoftwareType,DateUTC
2013-02-18 00:02:00,14.0,7.0,30.20,WNW,300,7.0,11.0,74,0.00,,,0.00,,2013-02-18 05:02:00,
2013-02-18 00:11:00,14.0,7.0,30.20,WNW,300,7.0,11.0,74,0.00,,,0.00,,2013-02-18 05:11:00,
2013-02-18 00:21:00,13.0,6.0,30.20,NW,325,4.0,11.0,73,0.00,,,0.00,,2013-02-18 05:21:00,
2013-02-18 00:32:00,13.0,6.0,30.21,NW,313,6.0,11.0,73,0.00,,,0.00,,2013-02-18 05:32:00,
2013-02-18 00:42:00,13.0,6.0,30.21,NW,313,6.0,11.0,73,0.00,,,0.00,,2013-02-18 05:42:00,
2013-02-18 00:52:00,13.0,6.0,30.20,WNW,300,5.0,9.0,74,0.00,,,0.00,,2013-02-18 05:52:00,
2013-02-18 01:02:00,13.0,7.0,30.20,WNW,300,3.0,9.0,75,0.00,,,0.00,,2013-02-18 06:02:00,
2013-02-18 01:11:00,13.0,7.0,30.20,WNW,300,3.0,9.0,75,0.00,,,0.00,,2013-02-18 06:11:00,
2013-02-18 01:22:00,13.0,7.0,30.20,NW,309,3.0,5.0,76,0.00,,,0.00,,2013-02-18 06:22:00,
2013-02-18 01:32:00,13.0,7.0,30.21,NW,304,2.0,3.0,76,0.00,,,0.00,,2013-02-18 06:32:00,
2013-02-18 01:42:00,13.0,7.0,30.21,NW,304,2.0,3.0,76,0.00,,,0.00,,2013-02-18 06:42:00,
2013-02-18 01:52:00,13.0,7.0,30.21,WNW,283,2.0,5.0,77,0.00,,,0.00,,2013-02-18 06:52:00,
2013-02-18 02:01:00,14.0,8.0,30.21,NNW,333,3.0,7.0,77,0.00,,,0.00,,2013-02-18 07:01:00,
2013-02-18 02:11:00,14.0,8.0,30.21,NNW,333,3.0,7.0,77,0.00,,,0.00,,2013-02-18 07:11:00,
2013-02-18 02:22:00,14.0,8.0,30.22,West,273,2.0,6.0,78,0.00,,,0.00,,2013-02-18 07:22:00,
2013-02-18 02:32:00,14.0,8.0,30.22,WSW,257,5.0,6.0,77,0.00,,,0.00,,2013-02-18 07:32:00,
2013-02-18 02:42:00,14.0,8.0,30.22,WSW,257,5.0,6.0,77,0.00,,,0.00,,2013-02-18 07:42:00,
2013-02-18 02:52:00,12.0,6.0,30.22,WSW,240,7.0,10.0,77,0.00,,,0.00,,2013-02-18 07:52:00,
2013-02-18 03:01:00,11.0,6.0,30.22,West,264,3.0,7.0,79,0.00,,,0.00,,2013-02-18 08:01:00,
2013-02-18 03:11:00,11.0,6.0,30.22,West,264,3.0,7.0,79,0.00,,,0.00,,2013-02-18 08:11:00,
2013-02-18 03:21:00,10.0,5.0,30.23,WSW,255,4.0,5.0,81,0.00,,,0.00,,2013-02-18 08:21:00,
2013-02-18 03:32:00,10.0,6.0,30.23,WSW,243,4.0,8.0,82,0.00,,,0.00,,2013-02-18 08:32:00,
2013-02-18 03:42:00,10.0,6.0,30.23,WSW,243,4.0,8.0,82,0.00,,,0.00,,2013-02-18 08:42:00,
2013-02-18 03:52:00,10.0,6.0,30.23,West,275,5.0,7.0,83,0.00,,,0.00,,2013-02-18 08:52:00,
2013-02-18 04:03:00,10.0,6.0,30.24,SW,236,5.0,7.0,84,0.00,,,0.00,,2013-02-18 09:03:00,
2013-02-18 04:11:00,10.0,6.0,30.24,SW,236,5.0,7.0,84,0.00,,,0.00,,2013-02-18 09:11:00,
2013-02-18 04:22:00,11.0,7.0,30.24,WSW,255,4.0,9.0,84,0.00,,,0.00,,2013-02-18 09:22:00,
2013-02-18 04:32:00,11.0,7.0,30.24,WSW,243,5.0,6.0,84,0.00,,,0.00,,2013-02-18 09:32:00,
2013-02-18 04:42:00,11.0,7.0,30.24,WSW,243,5.0,6.0,84,0.00,,,0.00,,2013-02-18 09:42:00,
2013-02-18 04:52:00,11.0,7.0,30.25,WSW,250,4.0,6.0,85,0.00,,,0.00,,2013-02-18 09:52:00,
2013-02-18 05:01:00,10.0,6.0,30.25,SW,236,3.0,5.0,84,0.00,,,0.00,,2013-02-18 10:01:00,
2013-02-18 05:11:00,10.0,6.0,30.25,SW,236,3.0,5.0,84,0.00,,,0.00,,2013-02-18 10:11:00,
2013-02-18 05:22:00,10.0,6.0,30.26,WSW,244,5.0,6.0,85,0.00,,,0.00,,2013-02-18 10:22:00,
2013-02-18 05:32:00,10.0,6.0,30.26,WSW,238,4.0,6.0,84,0.00,,,0.00,,2013-02-18 10:32:00,
2013-02-18 05:42:00,10.0,6.0,30.26,WSW,238,4.0,6.0,84,0.00,,,0.00,,2013-02-18 10:42:00,
2013-02-18 05:53:00,10.0,6.0,30.26,SW,222,3.0,5.0,84,0.00,,,0.00,,2013-02-18 10:53:00,
2013-02-18 06:02:00,10.0,6.0,30.26,SW,229,3.0,6.0,84,0.00,,,0.00,,2013-02-18 11:02:00,
2013-02-18 06:11:00,10.0,6.0,30.26,SW,229,3.0,6.0,84,0.00,,,0.00,,2013-02-18 11:11:00,
2013-02-18 06:22:00,10.0,6.0,30.26,SW,219,4.0,6.0,85,0.00,,,0.00,,2013-02-18 11:22:00,
2013-02-18 06:32:00,10.0,6.0,30.26,SW,228,3.0,5.0,85,0.00,,,0.00,,2013-02-18 11:32:00,
2013-02-18 06:42:00,10.0,6.0,30.26,SW,228,3.0,5.0,85,0.00,,,0.00,,2013-02-18 11:42:00,
2013-02-18 06:53:00,10.0,6.0,30.26,WSW,238,3.0,5.0,85,0.00,,,0.00,,2013-02-18 11:53:00,
2013-02-18 07:02:00,10.0,6.0,30.26,SSW,201,2.0,4.0,85,0.00,,,0.00,,2013-02-18 12:02:00,
2013-02-18 07:12:00,10.0,6.0,30.26,SSW,201,2.0,4.0,85,0.00,,,0.00,,2013-02-18 12:12:00,
2013-02-18 07:22:00,10.0,7.0,30.26,SSW,203,2.0,4.0,86,0.00,,,0.00,,2013-02-18 12:22:00,
2013-02-18 07:32:00,10.0,6.0,30.27,SSW,203,1.0,5.0,85,0.00,,,0.00,,2013-02-18 12:32:00,
2013-02-18 07:42:00,10.0,6.0,30.27,SSW,203,1.0,5.0,85,0.00,,,0.00,,2013-02-18 12:42:00,
2013-02-18 07:54:00,9.0,5.0,30.27,SSW,210,2.0,5.0,85,0.00,,,0.00,,2013-02-18 12:54:00,
2013-02-18 08:03:00,10.0,6.0,30.26,South,186,2.0,5.0,85,0.00,,,0.00,,2013-02-18 13:03:00,
2013-02-18 08:12:00,10.0,6.0,30.26,South,186,2.0,5.0,85,0.00,,,0.00,,2013-02-18 13:12:00,
2013-02-18 08:23:00,11.0,7.0,30.26,SW,225,2.0,5.0,83,0.00,,,0.00,,2013-02-18 13:23:00,
2013-02-18 08:32:00,12.0,7.0,30.26,South,174,4.0,6.0,81,0.00,,,0.00,,2013-02-18 13:32:00,
2013-02-18 08:42:00,12.0,7.0,30.26,South,174,4.0,6.0,81,0.00,,,0.00,,2013-02-18 13:42:00,
2013-02-18 08:53:00,13.0,8.0,30.26,SSE,155,2.0,4.0,79,0.00,,,0.00,,2013-02-18 13:53:00,
2013-02-18 09:02:00,15.0,9.0,30.26,SE,141,2.0,5.0,76,0.00,,,0.00,,2013-02-18 14:02:00,
2013-02-18 09:11:00,15.0,9.0,30.26,SE,141,2.0,5.0,76,0.00,,,0.00,,2013-02-18 14:11:00,
2013-02-18 09:22:00,16.0,9.0,30.26,SSE,155,1.0,5.0,74,0.00,,,0.00,,2013-02-18 14:22:00,
2013-02-18 09:33:00,17.0,9.0,30.25,South,189,2.0,5.0,71,0.00,,,0.00,,2013-02-18 14:33:00,
2013-02-18 09:42:00,17.0,9.0,30.25,South,189,2.0,5.0,71,0.00,,,0.00,,2013-02-18 14:42:00,
2013-02-18 09:54:00,18.0,10.0,30.25,South,170,3.0,6.0,70,0.00,,,0.00,,2013-02-18 14:54:00,
2013-02-18 10:02:00,19.0,10.0,30.24,SW,217,3.0,6.0,67,0.00,,,0.00,,2013-02-18 15:02:00,
2013-02-18 10:12:00,19.0,10.0,30.24,SW,217,3.0,6.0,67,0.00,,,0.00,,2013-02-18 15:12:00,
2013-02-18 10:22:00,20.0,11.0,30.24,SSE,160,3.0,7.0,66,0.00,,,0.00,,2013-02-18 15:22:00,
2013-02-18 10:32:00,21.0,10.0,30.24,SSE,163,4.0,7.0,63,0.00,,,0.00,,2013-02-18 15:32:00,
2013-02-18 10:42:00,21.0,10.0,30.24,SSE,163,4.0,7.0,63,0.00,,,0.00,,2013-02-18 15:42:00,
2013-02-18 10:53:00,22.0,11.0,30.24,SSE,155,4.0,7.0,61,0.00,,,0.00,,2013-02-18 15:53:00,
2013-02-18 11:03:00,23.0,11.0,30.23,SSW,196,6.0,11.0,60,0.00,,,0.00,,2013-02-18 16:03:00,
2013-02-18 11:12:00,23.0,11.0,30.23,SSW,196,6.0,11.0,60,0.00,,,0.00,,2013-02-18 16:12:00,
2013-02-18 11:22:00,23.0,12.0,30.23,South,177,3.0,8.0,62,0.00,,,0.00,,2013-02-18 16:22:00,
2013-02-18 11:32:00,24.0,13.0,30.22,SSE,155,3.0,8.0,61,0.00,,,0.00,,2013-02-18 16:32:00,
2013-02-18 11:42:00,24.0,13.0,30.22,SSE,155,3.0,8.0,61,0.00,,,0.00,,2013-02-18 16:42:00,
2013-02-18 11:53:00,24.0,13.0,30.21,SSE,160,5.0,14.0,62,0.00,,,0.00,,2013-02-18 16:53:00,
2013-02-18 12:04:00,25.0,14.0,30.20,SSW,192,5.0,9.0,62,0.00,,,0.00,,2013-02-18 17:04:00,
2013-02-18 12:12:00,25.0,14.0,30.20,SSW,192,5.0,9.0,62,0.00,,,0.00,,2013-02-18 17:12:00,
2013-02-18 12:22:00,25.0,13.0,30.19,ESE,110,6.0,9.0,60,0.00,,,0.00,,2013-02-18 17:22:00,
2013-02-18 12:32:00,25.0,14.0,30.19,ESE,117,5.0,11.0,63,0.00,,,0.00,,2013-02-18 17:32:00,
2013-02-18 12:42:00,25.0,14.0,30.19,ESE,117,5.0,11.0,63,0.00,,,0.00,,2013-02-18 17:42:00,
2013-02-18 12:53:00,26.0,15.0,30.18,SE,145,2.0,9.0,63,0.00,,,0.00,,2013-02-18 17:53:00,
2013-02-18 13:02:00,27.0,14.0,30.18,SE,143,5.0,10.0,58,0.00,,,0.00,,2013-02-18 18:02:00,
2013-02-18 13:12:00,27.0,14.0,30.18,SE,143,5.0,10.0,58,0.00,,,0.00,,2013-02-18 18:12:00,
2013-02-18 13:23:00,28.0,15.0,30.16,SE,135,5.0,8.0,58,0.00,,,0.00,,2013-02-18 18:23:00,
2013-02-18 13:33:00,28.0,16.0,30.14,SSE,162,3.0,10.0,59,0.00,,,0.00,,2013-02-18 18:33:00,
2013-02-18 13:42:00,28.0,16.0,30.14,SSE,162,3.0,10.0,59,0.00,,,0.00,,2013-02-18 18:42:00,
2013-02-18 13:53:00,27.0,14.0,30.15,ESE,108,6.0,13.0,57,0.00,,,0.00,,2013-02-18 18:53:00,
2013-02-18 14:03:00,28.0,15.0,30.14,South,173,5.0,9.0,57,0.00,,,0.00,,2013-02-18 19:03:00,
2013-02-18 14:12:00,28.0,15.0,30.14,South,173,5.0,9.0,57,0.00,,,0.00,,2013-02-18 19:12:00,
2013-02-18 14:22:00,28.0,15.0,30.13,SW,219,5.0,13.0,57,0.00,,,0.00,,2013-02-18 19:22:00,
2013-02-18 14:33:00,28.0,13.0,30.12,SE,134,4.0,9.0,53,0.00,,,0.00,,2013-02-18 19:33:00,
2013-02-18 14:43:00,28.0,13.0,30.12,SE,134,4.0,9.0,53,0.00,,,0.00,,2013-02-18 19:43:00,
2013-02-18 14:53:00,29.0,14.0,30.13,SSE,153,5.0,12.0,52,0.00,,,0.00,,2013-02-18 19:53:00,
2013-02-18 15:02:00,29.0,14.0,30.12,SE,146,5.0,7.0,54,0.00,,,0.00,,2013-02-18 20:02:00,
2013-02-18 15:12:00,29.0,14.0,30.12,SE,146,5.0,7.0,54,0.00,,,0.00,,2013-02-18 20:12:00,
2013-02-18 15:23:00,29.0,15.0,30.12,ENE,78,3.0,5.0,55,0.00,,,0.00,,2013-02-18 20:23:00,
2013-02-18 15:33:00,29.0,15.0,30.11,ESE,122,4.0,9.0,55,0.00,,,0.00,,2013-02-18 20:33:00,
2013-02-18 15:42:00,29.0,15.0,30.11,ESE,122,4.0,9.0,55,0.00,,,0.00,,2013-02-18 20:42:00,
2013-02-18 15:53:00,29.0,14.0,30.10,ESE,110,5.0,8.0,53,0.00,,,0.00,,2013-02-18 20:53:00,
2013-02-18 16:03:00,29.0,15.0,30.09,ESE,108,7.0,9.0,56,0.00,,,0.00,,2013-02-18 21:03:00,
2013-02-18 16:12:00,29.0,15.0,30.09,ESE,108,7.0,9.0,56,0.00,,,0.00,,2013-02-18 21:12:00,
2013-02-18 16:22:00,29.0,16.0,30.08,East,94,6.0,8.0,58,0.00,,,0.00,,2013-02-18 21:22:00,
2013-02-18 16:32:00,28.0,16.0,30.08,ENE,77,5.0,9.0,61,0.00,,,0.00,,2013-02-18 21:32:00,
2013-02-18 16:43:00,28.0,16.0,30.08,ENE,77,5.0,9.0,61,0.00,,,0.00,,2013-02-18 21:43:00,
2013-02-18 16:53:00,28.0,17.0,30.06,East,82,5.0,9.0,62,0.00,,,0.00,,2013-02-18 21:53:00,
2013-02-18 17:03:00,27.0,16.0,30.06,East,89,5.0,8.0,64,0.00,,,0.00,,2013-02-18 22:03:00,
2013-02-18 17:12:00,27.0,16.0,30.04,ENE,77,8.0,10.0,64,0.00,,,0.00,,2013-02-18 22:12:00,
2013-02-18 17:23:00,27.0,16.0,30.04,ENE,77,8.0,10.0,64,0.00,,,0.00,,2013-02-18 22:23:00,
2013-02-18 17:33:00,27.0,17.0,30.04,ESE,107,5.0,7.0,65,0.00,,,0.00,,2013-02-18 22:33:00,
2013-02-18 17:43:00,27.0,17.0,30.04,ESE,107,5.0,7.0,65,0.00,,,0.00,,2013-02-18 22:43:00,
2013-02-18 17:54:00,26.0,17.0,30.03,East,97,5.0,7.0,68,0.00,,,0.00,,2013-02-18 22:54:00,
2013-02-18 18:02:00,26.0,17.0,30.03,ESE,114,5.0,8.0,69,0.00,,,0.00,,2013-02-18 23:02:00,
2013-02-18 18:12:00,26.0,17.0,30.03,ESE,114,5.0,8.0,69,0.00,,,0.00,,2013-02-18 23:12:00,
2013-02-18 18:23:00,26.0,18.0,30.03,ESE,108,5.0,9.0,70,0.00,,,0.00,,2013-02-18 23:23:00,
2013-02-18 18:33:00,26.0,17.0,30.02,ESE,117,7.0,10.0,69,0.00,,,0.00,,2013-02-18 23:33:00,
2013-02-18 18:43:00,26.0,17.0,30.02,ESE,117,7.0,10.0,69,0.00,,,0.00,,2013-02-18 23:43:00,
2013-02-18 18:53:00,26.0,17.0,30.01,SE,127,8.0,14.0,68,0.00,,,0.00,,2013-02-18 23:53:00,
2013-02-18 19:03:00,26.0,17.0,30.00,ESE,105,8.0,13.0,68,0.00,,,0.00,,2013-02-19 00:03:00,
2013-02-18 19:12:00,26.0,17.0,30.00,ESE,105,8.0,13.0,68,0.00,,,0.00,,2013-02-19 00:12:00,
2013-02-18 19:23:00,26.0,17.0,29.99,ESE,116,8.0,14.0,67,0.00,,,0.00,,2013-02-19 00:23:00,
2013-02-18 19:34:00,27.0,17.0,29.98,ESE,114,8.0,13.0,66,0.00,,,0.00,,2013-02-19 00:34:00,
2013-02-18 19:43:00,27.0,17.0,29.98,ESE,114,8.0,13.0,66,0.00,,,0.00,,2013-02-19 00:43:00,
2013-02-18 19:55:00,26.0,16.0,29.97,East,101,9.0,13.0,66,0.00,,,0.00,,2013-02-19 00:55:00,
2013-02-18 20:03:00,26.0,17.0,29.97,SE,141,5.0,10.0,67,0.00,,,0.00,,2013-02-19 01:03:00,
2013-02-18 20:14:00,26.0,17.0,29.97,SE,141,5.0,10.0,67,0.00,,,0.00,,2013-02-19 01:14:00,
2013-02-18 20:24:00,26.0,17.0,29.96,East,80,3.0,9.0,67,0.00,,,0.00,,2013-02-19 01:24:00,
2013-02-18 20:34:00,26.0,17.0,29.95,ESE,120,6.0,9.0,67,0.00,,,0.00,,2013-02-19 01:34:00,
2013-02-18 20:44:00,26.0,17.0,29.95,ESE,120,6.0,9.0,67,0.00,,,0.00,,2013-02-19 01:44:00,
2013-02-18 20:56:00,26.0,17.0,29.94,ESE,118,4.0,9.0,67,0.00,,,0.00,,2013-02-19 01:56:00,
2013-02-18 21:03:00,26.0,17.0,29.93,ESE,112,4.0,7.0,68,0.00,,,0.00,,2013-02-19 02:03:00,
2013-02-18 21:14:00,26.0,17.0,29.93,ESE,112,4.0,7.0,68,0.00,,,0.00,,2013-02-19 02:14:00,
2013-02-18 21:23:00,26.0,17.0,29.93,SE,146,3.0,8.0,69,0.00,,,0.00,,2013-02-19 02:23:00,
2013-02-18 21:34:00,27.0,18.0,29.93,SE,124,2.0,5.0,69,0.00,,,0.00,,2013-02-19 02:34:00,
2013-02-18 21:43:00,27.0,18.0,29.93,SE,124,2.0,5.0,69,0.00,,,0.00,,2013-02-19 02:43:00,
2013-02-18 21:56:00,27.0,19.0,29.92,ENE,71,2.0,5.0,71,0.00,,,0.00,,2013-02-19 02:56:00,
2013-02-18 22:06:00,27.0,19.0,29.91,ESE,109,2.0,5.0,71,0.00,,,0.00,,2013-02-19 03:06:00,
2013-02-18 22:15:00,27.0,19.0,29.91,ESE,109,2.0,5.0,71,0.00,,,0.00,,2013-02-19 03:15:00,
2013-02-18 22:24:00,27.0,18.0,29.91,SE,124,4.0,5.0,69,0.00,,,0.00,,2013-02-19 03:24:00,
2013-02-18 22:34:00,27.0,18.0,29.90,SE,129,3.0,4.0,68,0.00,,,0.00,,2013-02-19 03:34:00,
2013-02-18 22:44:00,27.0,18.0,29.90,SE,129,3.0,4.0,68,0.00,,,0.00,,2013-02-19 03:44:00,
2013-02-18 22:55:00,27.0,18.0,29.89,ESE,121,3.0,6.0,69,0.00,,,0.00,,2013-02-19 03:55:00,
2013-02-18 23:03:00,28.0,19.0,29.88,SSE,153,3.0,6.0,69,0.00,,,0.00,,2013-02-19 04:03:00,
2013-02-18 23:14:00,28.0,19.0,29.88,SSE,153,3.0,6.0,69,0.00,,,0.00,,2013-02-19 04:14:00,
2013-02-18 23:23:00,28.0,19.0,29.88,SE,127,3.0,4.0,69,0.00,,,0.00,,2013-02-19 04:23:00,
2013-02-18 23:33:00,28.0,19.0,29.87,SE,144,3.0,5.0,69,0.00,,,0.00,,2013-02-19 04:33:00,
2013-02-18 23:44:00,28.0,19.0,29.87,SE,144,3.0,5.0,69,0.00,,,0.00,,2013-02-19 04:44:00,
2013-02-18 23:55:00,28.0,19.0,29.86,SE,136,2.0,4.0,69,0.00,,,0.00,,2013-02-19 04:55:00,